Tracking 18851 objects as of 24-Nov-2017
HD Live streaming from Space Station
objects crossing your sky now

FENGYUN 1C DEB

Track FENGYUN 1C DEB now!
10-day predictions


NORAD ID: 30944
Int'l Code: 1999-025BAJ
Perigee: 626.1 km
Apogee: 849.2 km
Inclination: 98.9 °
Period: 99.4 minutes
Semi major axis: 7108 km
RCS: 0.0014 m2 (small)
Launch date: May 10, 1999
Source: People's Republic of China (PRC)
Launch site: Taiyaun Space Center, China (TSC)

Note: This is SATELLITE DEBRIS
aabbcc
Your satellite tracking list
Your tracking list is empty




NASA's NSSDC Master Catalog

Two Line Element Set (TLE):
1 30944U 99025BAJ 17327.44280271 +.00000078 +00000-0 +31283-4 0  9999
2 30944 098.8626 194.6455 0156885 318.6285 164.9352 14.48511434564652
Source of the keplerian elements: AFSPC